Résultats de la compétition "Trophée Saint-Quentin-en-Yvelines" du 02-06-2010 organisée par le club 7807
     
  Télécharger le fichier CSV.  
     
     

 Circuit "Circuit E"

Licence Nom Prénom Temps CN
précédent
Score sur
la course
Différence
22315CHARDOTMarion0:27:5220242003-21
20417LEMAIREEnzo0:29:198871904+1017
16689ROGERAnton0:31:5910891745+656
19095LEMAIRECléo0:32:4701703N/A
19375MERIGUETEmilie0:34:337821616+834
22944WUAmandine0:45:16N/A1233N/A
22769RAOULTLauryne0:50:06N/A1114N/A
22943WUCédric0:52:26N/A1065N/A
19099PANNIERAxel0:56:451216984-232
22937COUSSEMENTMaëlN/AN/A0N/A

  Indice de confiance du circuit (moyenne des différences entre CN et score sur la course des 3 à 10 premiers) : 891




 Circuit "Circuit A"

Licence Nom Prénom Temps CN
précédent
Score sur
la course
Différence
17648DUBURQUOISErwan0:58:4460816175+94
4374BONNEAUMaxime0:59:3763536084-269
8823LEGUENOlivier0:59:4253296075+746
11475GODEFROYBruno0:59:4866366065-571
10757MARTELFranck1:01:5062545865-389
12114PANNIERPascal1:02:3857125791+79
9687BOTHORELPierre1:03:4648485688+840
3201RAUTURIERChristophe1:06:0756445485-159
19028SCHMIDT-MORGENROTHJacques1:06:3150905452+362
17775MAURIESBenjamin1:07:0257815410-371
9601BESTELThierry1:07:0458345408-426
7251GRUSELLEFabien1:07:3863865362-1024
1365LEJEUNEBruno1:07:4657345352-382
12934THOMASJohann1:08:1963945309-1085
13445HEALYYann1:08:3054105295-115
3742JOURDATOlivier1:08:5449945264+270
6481RORASebastien1:09:4054015206-195
22156RIBIEREmmanuel1:09:4142715205+934
5638TARDYVictor1:09:4358175202-615
19101MACLEBruno1:09:4751375197+60
4181RAUTURIERBenoit1:09:5357205190-530
10751RAOULTPascal1:10:0340095177+1168
22399GUILLEMINWilly1:12:3040235003+980
9420BLANDINDenis1:12:4843424982+640
7610HEROUARDThierry1:13:4454904919-571
15176QUINQUENELHerve1:19:3947624553-209
2221BEAUVISAGEChristoph1:19:5347724540-232
14024VALENTINTeo1:20:5246434485-158
11709ROMIEUCyril1:21:4239924439+447
16264MARTYPatrick1:22:2338894402+513
22442BAROZZIJean-baptiste1:22:5504374N/A
9599THONIERBruno1:23:0250604368-692
2171DEVILLERSChristophe1:24:2444944297-197
1977FISCHERFrederic1:24:3344804290-190
4357ROULLEAUXAlain1:27:2548104149-661
19674GRANCOINMarc1:27:4335414135+594
18058BLAIRONSylvain1:29:3730844047+963
14650EDIARMichel1:29:5542764034-242
14974LAUDEPhilippe1:30:0038624030+168
853VALLATPierrick1:30:4536553996+341
19344DAEMAdriaan1:31:4340753954-121
13245POYARDJ-Claude1:32:1239463934-12
20784WUThierry1:42:2731473540+393
7838COSTERobert1:45:2245903442-1148
17987COLOMBJ-Marie1:49:09N/A3323N/A
13218VERNINChristianN/A34730-3473
11554VERBRUGGHEAlainN/A30620-3062
8548CLOUARDFredericN/A42840-4284
22435LORMEAUStéphaneN/A32300-3230
15898POUGHEONPierreN/A47740-4774
18874ROBARTSébastienN/A46180-4618
4178ADRIENChristopheN/A48410-4841
11531BRAULTLionelN/A55260-5526

  Indice de confiance du circuit (moyenne des différences entre CN et score sur la course des 3 à 10 premiers) : 129




 Circuit "Circuit B"

Licence Nom Prénom Temps CN
précédent
Score sur
la course
Différence
10755L'HERITIERJean-Philippe0:50:5164136001-412
6117LESAULTPhilippe0:55:2358625510-352
19094LEMAIREYann-pierrick0:57:4944355278+843
1854GUILLONAlain1:04:2544314737+306
4183RAUTURIERCamille1:05:2050064671-335
20396HIRSCHAUERVincent1:05:3451404654-486
10809GUERINFranck1:07:1443864539+153
8922ROULLEAUXNoemie1:08:3847924446-346
16588BESCHFrederic1:13:0450904177-913
3030SABATIERFrancois1:19:2737963841+45
1929CHINCHOLEPaul1:27:1031163501+385
20466MORANDJean-philippe1:28:4433333439+106
11302CARRIELaurent1:30:5830453355+310
10627GABRIELPhilippe1:31:4933453324-21
19003PIERSONBlandine1:34:1134173240-177
11313GLASSETJ-Luc1:35:2331353199+64
20845POUVRASSEAULudovic1:35:2628173198+381
19426EGLIZEAUDEric1:35:36N/A3192N/A
19097COUSSEMENTNicolas1:43:2528792951+72
884GARDEURJulien1:44:0138202934-886
18059BRUNDU-LEMAIRESarah1:44:3036932920-773
21120GACHETAmandine1:45:2602894N/A
11999LAURENTMichel1:46:2702867N/A
17309BESTELFlorence1:48:0434922824-668
18480PAULETSerge1:51:4835142730-784
571LEPETITMichel1:55:2437762644-1132
14946LEVREUXNathalie1:56:4532092614-595
13356THOPARTDavid2:04:2226582454-204
19215PASSELERGUEMarianne2:04:3733002449-851
10338ROGIERYannN/A26000-2600
20920COUDELionelN/A28270-2827
23081PINCEClaireN/AN/A0N/A
19614DROUINSégolèneN/AN/A0N/A
21371BOURGEOISPhilippeN/A00N/A
18140AUBERTFabriceN/A25410-2541
1993PERICHONBernardN/A60010-6001
6488MERATLaurentN/A47010-4701
22780AUGUSTYNOWICZBriceN/A00N/A
19570TOULEMONDEBrunoN/A26570-2657
17662GIBARTJocelynN/A31010-3101
23346VANLEENEBenoitN/AN/A0N/A

  Indice de confiance du circuit (moyenne des différences entre CN et score sur la course des 3 à 10 premiers) : 233




 Circuit "Circuit C"

Licence Nom Prénom Temps CN
précédent
Score sur
la course
Différence
1857GUILLONSophie0:42:3738584779+921
23200VAN LEYNSEELEMarie0:45:41N/A4458N/A
9869CORDEIRO MENDESMagalie0:47:3954674274-1193
23163POUGHEONThomas0:51:12N/A3978N/A
14684MERIGUETThomas0:53:1329333827+894
16070RICHINMarion0:53:4641453788-357
20358COFFEMarie-pierre0:54:3830653728+663
21220TAISSONSandrine1:05:4428773098+221
22398BONNETVincent1:05:5225863092+506
3847MATHELIERChristian1:06:5503043N/A
1373SZECHENYIEdmond1:07:1131923031-161
12733BROYARTDominique1:07:2132623024-238
4168WELSCHJ-Marc1:07:52N/A3001N/A
22974ROUZOTDenis1:08:08N/A2989N/A
20554COFFEDaniel1:08:1130072987-20
8920TOUZAIN ROULLEAUXIsabelle1:08:3037832973-810
14685MARTYCelia1:08:3121622972+810
20418PIGEOTSylvie1:09:2730152932-83
12556BOURIOTDominique1:09:4902917N/A
18296LAVOLLAYMarc1:11:5423382832+494
20982CHENOTFranck1:14:5130552721-334
16946POTEAUJimmy1:17:5324562615+159
4372PETITGuyonne1:19:0244722577-1895
16309CAVARROCCeline1:19:1817362568+832
14681ROGERAymeric1:21:1739802505-1475
22385TOMASSIJean Marc1:21:5024512489+38
21973AMIARDRenaud1:27:2928582328-530
13355SCHLUTIGSandrine1:28:3619712299+328
22314CHARDOTUlrike1:32:5614752191+716
5394GIRAULTDenis1:35:4019662129+163
20372LE GUYADERFrançoise1:35:4119432128+185
23208DIONThibault1:35:56N/A2123N/A
22940LE GALLAlain1:48:59N/A1869N/A
19571TOULEMONDEAgnès1:50:4517411839+98
22363BONNETDominiqueN/A00N/A
23471BELLECSébastienN/AN/A0N/A
22539CHARDOTThierryN/A15490-1549

  Indice de confiance du circuit (moyenne des différences entre CN et score sur la course des 3 à 10 premiers) : 264




 Circuit "Circuit D"

Licence Nom Prénom Temps CN
précédent
Score sur
la course
Différence
22575DREANOBenjamin0:34:2413772880+1503
20864VIRETTO CITCéline 0:39:4325342495-39
8552CLOUARDAugustin0:43:4323232266-57
13740BEAUVISAGEFabienne0:44:3527152222-493
10758BESTELSandra0:45:3426242174-450
22234PIGEOTLaurène0:49:2520612005-56
17308BESTELArnault0:49:2822362003-233
14683PENAUDThierry0:56:4901744N/A
22561PUECHLaurana1:01:0601622N/A
22359LAMBERT Grégoire1:01:2001615N/A
17544BONNETPatricia1:02:2314441588+144
16687MERIGUETValerie1:02:4014301581+151
17540WALLYElea1:06:568401480+640
17774MARTYDorine1:28:5110251115+90
13396BEAUVISAGEQuentinN/A19700-1970
20368ROBERTVéroniqueN/A00N/A

  Indice de confiance du circuit (moyenne des différences entre CN et score sur la course des 3 à 10 premiers) : 354






 Retour